CAPE
nan nan nan nan nan nan nan nan nan nan nan nan nan nan nan nan nan nan nan nan nan nan nan nan nan nan nan nan nan nan nan nan nan nan nan nan nan nan nan nan nan nan nan nan nan nan 0 1 1 3 4 5 5 5 7 7 7 7 8 6 6 7 7 6 6 4 4 3 4 4 2 1 1 1 1 2 5 5 8 10 10 12 13 16 16 22
nan nan nan nan nan nan nan nan nan nan nan nan nan nan nan nan nan nan nan nan nan nan nan nan nan nan nan nan nan nan nan nan nan nan nan nan nan nan nan nan nan nan nan nan nan nan 0 1 1 2 3 3 3 3 3 4 4 4 4 4 4 4 4 3 3 3 3 3 2 2 1 1 1 1 2 6 8 8 11 13 13 14 16 22 22 28
nan nan nan nan nan nan nan nan nan nan nan nan nan nan nan nan nan nan nan nan nan nan nan nan nan nan nan nan nan nan nan nan nan nan nan nan nan nan nan nan nan nan nan nan nan nan nan 0 0 1 1 1 1 1 1 2 2 2 2 2 2 2 1 1 1 1 1 1 1 1 1 1 3 3 6 9 12 12 13 16 16 17 20 28 28 34
nan nan nan nan nan nan nan nan nan nan nan nan nan nan nan nan nan nan nan nan nan nan nan nan nan nan nan nan nan nan nan nan nan nan nan nan nan nan nan nan nan nan nan nan nan nan nan nan nan nan nan 0 0 0 0 0 0 0 0 0 0 0 0 0 0 0 1 1 1 1 1 3 6 6 8 10 13 13 15 17 17 19 24 29 29 36
nan nan nan nan nan nan nan nan nan nan nan nan nan nan nan nan nan nan nan nan nan nan nan nan nan nan nan nan nan nan nan nan nan nan nan nan nan nan nan nan nan nan nan nan nan nan nan nan nan nan nan nan nan nan 0 0 0 0 0 nan nan nan nan nan nan 0 0 1 1 1 2 4 7 7 8 10 12 12 14 16 16 19 24 30 30 36
nan nan nan nan nan nan nan nan nan nan nan nan nan nan nan nan nan nan nan nan nan nan nan nan nan nan nan nan nan nan nan nan nan nan nan nan nan nan nan nan nan nan nan nan nan nan nan nan nan nan nan nan nan nan 0 0 0 nan nan nan nan nan nan nan nan nan 1 2 2 2 3 5 6 6 7 9 11 11 13 15 15 17 23 28 28 34
nan nan nan nan nan nan nan nan nan nan nan nan nan nan nan nan nan nan nan nan nan nan nan nan nan nan nan nan nan nan nan nan nan nan nan nan nan nan nan nan nan nan nan nan nan nan nan nan nan nan nan nan nan nan nan 0 0 nan nan nan nan nan nan nan nan 0 1 2 2 2 3 4 5 5 7 8 10 10 13 15 15 17 20 26 26 32
nan nan nan nan nan nan nan nan nan nan nan nan nan nan nan nan nan nan nan nan nan nan nan nan nan nan nan nan nan nan nan nan nan nan nan nan nan nan nan nan nan nan nan nan nan nan nan nan nan nan nan nan nan nan 0 0 0 nan nan nan nan nan nan nan nan 0 1 2 2 2 3 3 4 4 6 7 8 8 10 13 13 17 18 19 19 23
nan nan nan nan nan nan nan nan nan nan nan nan nan nan nan nan nan nan nan nan nan nan nan nan nan nan nan nan nan nan nan nan nan nan nan nan nan nan nan nan nan nan nan nan nan nan nan nan nan nan nan nan 0 0 0 nan nan nan nan nan nan nan nan nan nan 0 1 1 2 2 3 4 5 5 6 7 8 8 8 10 10 14 18 19 19 21
nan nan nan nan nan nan nan nan nan nan nan nan nan nan nan nan nan nan nan nan nan nan nan nan nan nan nan nan nan nan nan nan nan nan nan nan nan nan nan nan nan nan nan nan nan nan nan nan nan nan nan nan nan nan nan nan nan nan nan nan nan nan nan 0 0 1 1 1 2 2 3 4 4 4 5 6 7 7 7 7 7 11 13 17 17 19
nan nan nan nan nan nan nan nan nan nan nan nan nan nan nan nan nan nan nan nan nan nan nan nan nan nan nan nan nan nan nan nan nan nan nan nan nan nan nan nan nan nan nan nan nan nan nan nan nan nan nan nan nan nan nan nan nan nan nan nan nan nan nan 0 0 1 1 2 2 2 3 4 4 4 5 5 7 7 6 6 6 7 10 13 13 16
nan nan nan nan nan nan nan nan nan nan nan nan nan nan nan nan nan nan nan nan nan nan nan nan nan nan nan nan nan nan nan nan nan nan nan nan nan nan nan nan nan nan nan nan nan nan nan nan nan nan nan nan nan nan nan nan nan nan nan nan nan nan nan 0 0 1 1 2 3 3 3 4 5 5 6 6 6 6 6 7 7 7 8 11 11 14
nan nan nan nan nan nan nan nan nan nan nan nan nan nan nan nan nan nan nan nan nan nan nan nan nan nan nan nan nan nan nan nan nan nan nan nan nan nan nan nan nan nan nan nan nan nan nan nan nan nan nan nan nan nan nan nan nan nan nan nan nan nan 0 1 1 1 1 2 3 3 3 4 5 5 5 7 7 7 6 7 7 8 8 10 10 13
nan nan nan nan nan nan nan nan nan nan nan nan nan nan nan nan nan nan nan nan nan nan nan nan nan nan nan nan nan nan nan nan nan nan nan nan nan nan nan nan nan nan nan nan nan nan nan nan nan nan nan nan nan nan nan nan nan nan nan nan nan nan 0 1 1 1 2 2 3 3 3 4 5 5 6 7 7 7 6 7 7 7 8 10 10 12
nan nan nan nan nan nan nan nan nan nan nan nan nan nan nan nan nan nan nan nan nan nan nan nan nan nan nan nan nan nan nan nan nan nan nan nan nan nan nan nan nan nan nan nan nan nan nan nan nan nan nan nan nan nan nan nan nan nan nan nan nan 0 0 1 1 1 2 3 3 3 3 4 6 6 6 7 6 6 6 7 7 7 8 10 10 11
nan nan nan nan nan nan nan nan nan nan nan nan nan nan nan nan nan nan nan nan nan nan nan nan nan nan nan nan nan nan nan nan nan nan nan nan nan nan nan nan nan nan nan nan nan nan nan nan nan nan nan nan nan nan nan nan nan nan nan nan nan 0 1 1 1 2 2 3 3 3 4 4 5 5 6 5 5 5 5 5 5 6 8 9 9 11
nan nan nan nan nan nan nan nan nan nan nan nan nan nan nan nan nan nan nan nan nan nan nan nan nan nan nan nan nan nan nan nan nan nan nan nan nan nan nan nan nan nan nan nan nan nan nan nan nan nan nan nan nan nan nan nan nan nan nan 0 0 0 1 1 1 2 2 3 3 3 4 4 4 4 4 4 4 4 5 4 4 6 7 10 10 11
nan nan nan nan nan nan nan nan nan nan nan nan nan nan nan nan nan nan nan nan nan nan nan nan nan nan nan nan nan nan nan nan nan nan nan nan nan nan nan nan nan nan nan nan nan nan nan nan nan nan nan nan nan nan nan nan nan nan 0 0 0 1 1 1 1 2 2 3 3 3 3 3 4 4 4 4 4 4 4 5 5 7 8 10 10 13
nan nan nan nan nan nan nan nan nan nan nan nan nan nan nan nan nan nan nan nan nan nan nan nan nan nan nan nan nan nan nan nan nan nan nan nan nan nan nan nan nan nan nan nan nan nan nan nan nan nan nan nan nan nan nan nan nan 0 1 1 1 1 1 1 1 2 2 2 2 2 3 3 4 4 4 4 5 5 6 7 7 9 10 12 12 14
nan nan nan nan nan nan nan nan nan nan nan nan nan nan nan nan nan nan nan nan nan nan nan nan nan nan nan nan nan nan nan nan nan nan nan nan nan nan nan nan nan nan nan nan nan nan nan nan nan nan nan nan nan nan nan 0 0 0 1 1 1 1 1 1 1 1 1 1 2 2 3 4 5 5 6 7 7 7 7 9 9 12 13 15 15 15
nan nan nan nan nan nan nan nan nan nan nan nan nan nan nan nan nan nan nan nan nan nan nan nan nan nan nan nan nan nan nan nan nan nan nan nan nan nan nan nan nan nan nan nan nan nan nan nan nan nan nan nan nan nan nan 0 0 1 1 1 1 1 0 0 0 nan 0 0 1 1 3 5 6 6 7 7 8 8 9 11 11 12 13 15 15 16
nan nan nan nan nan nan nan nan nan nan nan nan nan nan nan nan nan nan nan nan nan nan nan nan nan nan nan nan nan nan nan nan nan nan nan nan nan nan nan nan nan nan nan nan nan nan nan nan nan nan nan nan nan nan nan nan nan 0 1 0 0 0 nan nan nan nan 0 1 2 2 4 6 7 7 7 7 8 8 10 11 11 13 14 15 15 16
nan nan nan nan nan nan nan nan nan nan nan nan nan nan nan nan nan nan nan nan nan nan nan nan nan nan nan nan nan nan nan nan nan nan nan nan nan nan nan nan nan nan nan nan nan nan nan nan nan nan nan nan nan nan nan nan nan 0 0 nan nan nan nan 0 0 0 0 1 2 2 4 6 6 6 6 7 9 9 10 12 12 12 14 15 15 16
nan nan nan nan nan nan nan nan nan nan nan nan nan nan nan nan nan nan nan nan nan nan nan nan nan nan nan nan nan nan nan nan nan nan nan nan nan nan nan nan nan nan nan nan nan nan nan nan nan nan nan nan nan nan nan nan nan nan nan nan nan nan nan 0 0 1 1 1 2 2 4 5 7 7 8 9 10 10 11 11 11 12 14 14 14 14
nan nan nan nan nan nan nan nan nan nan nan nan nan nan nan nan nan nan nan nan nan nan nan nan nan nan nan nan nan nan nan nan nan nan nan nan nan nan nan nan nan nan nan nan nan nan nan nan nan nan nan nan nan nan nan nan nan nan nan nan nan nan nan 0 0 1 2 2 3 3 4 5 6 6 8 10 10 10 11 12 12 12 14 14 14 14
nan nan nan nan nan nan nan nan nan nan nan nan nan nan nan nan nan nan nan nan nan nan nan nan nan nan nan nan nan nan nan nan nan nan nan nan nan nan nan nan nan nan nan nan nan nan nan nan nan nan nan nan nan nan nan nan nan nan nan nan nan nan nan 0 0 1 2 3 3 3 4 5 7 7 9 10 11 11 12 13 13 13 15 16 16 14
7 10 13 10 10 6 3 3 4 4 3 nan nan nan nan nan nan nan nan nan nan nan nan nan nan nan nan nan nan nan nan nan nan nan nan nan nan nan nan nan nan nan nan nan nan nan nan nan nan nan nan nan nan nan nan nan nan nan nan nan nan nan nan 0 0 1 2 3 3 3 4 5 7 7 8 10 12 12 13 14 14 18 18 16 16 13
13 18 19 23 23 22 20 19 21 21 22 16 4 4 nan nan nan nan nan nan nan nan nan nan nan nan 0 nan nan nan nan nan nan nan nan nan nan nan nan nan nan nan nan nan nan nan nan nan nan nan nan nan nan nan nan nan nan nan nan nan nan nan nan nan nan 0 1 2 3 3 3 4 5 5 7 9 10 10 12 13 13 16 16 9 9 0
14 16 19 24 24 26 29 31 34 34 37 37 31 31 9 2 1 1 0 nan nan nan nan nan nan nan 0 nan nan nan nan nan nan nan nan nan nan nan nan nan nan nan nan nan nan nan nan nan nan nan nan nan nan nan nan nan nan nan nan nan nan nan nan nan nan nan 1 2 2 2 3 3 4 4 6 8 10 10 11 13 13 15 12 5 5 0
nan 0 8 16 16 25 25 19 23 23 38 44 43 43 40 6 0 0 nan nan nan nan nan nan nan nan nan nan nan nan nan nan nan nan nan nan nan nan nan nan nan nan nan nan nan nan nan nan nan nan nan nan nan nan nan nan nan nan nan nan nan nan nan nan nan nan 0 1 2 2 2 2 4 4 5 7 8 8 10 12 12 10 3 1 1 0
nan nan nan nan nan nan nan nan nan nan 9 30 27 27 2 nan nan nan nan nan nan nan nan nan nan nan nan nan nan nan nan nan nan nan nan nan nan nan nan nan nan nan nan nan nan nan nan nan nan nan nan nan nan nan nan nan nan nan nan nan nan nan nan nan nan nan nan 0 1 1 2 2 3 3 4 5 7 7 9 13 13 10 2 0 0 0
nan nan nan nan nan nan nan nan nan nan nan nan nan nan nan nan nan nan nan nan nan nan nan nan nan nan nan nan nan nan nan nan nan nan nan nan nan nan nan nan nan nan nan nan nan nan nan nan nan nan nan nan nan nan nan nan nan nan nan nan nan nan nan nan nan nan nan nan nan nan 0 0 1 1 1 3 4 4 7 11 11 12 5 3 3 3
nan nan nan nan nan nan nan nan nan nan nan nan nan nan nan nan nan nan nan nan nan nan nan nan nan nan nan nan nan nan nan nan nan nan nan nan nan nan nan nan nan nan nan nan nan nan nan nan nan nan nan nan nan nan nan nan nan nan nan nan nan nan nan nan nan nan nan nan nan nan nan nan 0 0 1 2 4 4 6 11 11 15 16 3 3 4
nan nan nan nan nan nan nan nan nan nan nan nan nan nan nan nan nan nan nan nan nan nan nan nan nan nan nan nan nan nan nan nan nan nan nan nan nan nan nan nan nan nan nan nan nan nan nan nan nan nan nan nan nan nan nan nan nan nan nan nan nan nan nan nan nan nan nan nan nan nan nan nan nan nan nan 1 3 3 8 13 13 16 16 10 10 5
nan nan nan nan nan nan nan nan nan nan nan nan nan nan nan nan nan nan nan nan nan nan nan nan nan nan nan nan nan nan nan nan nan nan 2 nan nan nan nan nan nan nan nan nan nan nan nan 0 0 1 1 1 nan nan nan nan nan nan nan nan nan nan nan nan nan nan nan nan nan nan nan nan nan nan nan nan 4 4 10 14 14 16 17 17 17 12
nan nan nan nan nan nan nan nan nan nan nan nan nan nan nan nan nan nan nan nan nan nan nan nan nan nan nan nan nan nan nan nan nan nan nan nan nan nan nan nan nan nan nan nan nan 0 0 nan nan 3 5 2 nan nan nan nan nan nan nan nan nan nan nan nan nan nan nan nan nan nan nan nan nan nan nan 2 8 8 11 12 12 13 14 16 16 15
nan nan nan nan nan nan nan nan nan nan nan nan nan nan nan nan nan nan nan nan nan nan nan nan nan nan nan nan nan nan nan nan nan nan nan nan nan nan nan nan nan 0 nan 0 0 0 nan nan nan 0 0 0 nan nan nan nan nan nan nan nan nan nan nan nan nan nan nan nan nan nan nan nan nan nan nan 3 3 3 6 9 9 10 13 14 14 15
nan nan nan nan nan nan nan nan nan nan nan nan nan nan nan nan nan nan nan nan nan nan nan nan nan nan nan nan nan nan nan nan nan nan nan nan nan nan nan nan nan 1 1 nan nan nan nan nan nan nan nan nan nan nan nan nan nan nan nan nan nan nan nan nan nan nan nan nan nan nan nan nan nan nan nan nan nan nan nan nan nan 3 9 10 10 13
nan nan nan nan nan nan nan nan nan nan nan nan nan nan nan nan nan nan nan nan nan nan nan nan nan nan nan nan nan nan nan nan nan nan nan nan nan nan nan nan nan 0 nan nan nan nan nan nan nan nan nan nan nan nan nan nan nan nan nan nan nan nan nan nan nan nan nan nan nan nan nan nan nan nan nan nan nan nan nan nan nan nan nan nan nan 4
nan nan nan nan nan nan nan nan nan nan nan nan nan nan nan nan nan nan nan nan nan nan nan nan nan nan nan nan nan nan nan nan nan nan nan nan nan nan nan nan nan nan nan nan nan nan nan nan nan nan nan nan nan nan nan nan nan nan nan nan nan nan nan nan nan nan nan nan nan nan nan nan nan nan nan nan nan nan nan nan nan nan nan nan nan nan
nan nan nan nan nan nan nan nan nan nan nan nan nan nan nan nan nan nan nan nan nan nan nan nan nan nan nan nan nan nan nan nan nan nan nan nan nan nan nan nan nan nan nan nan nan nan nan nan nan nan nan nan nan nan nan nan nan nan 2 nan nan nan nan nan nan nan nan nan nan nan nan nan nan nan nan nan nan nan nan nan nan nan nan nan nan nan
0 nan nan nan nan nan nan nan nan nan nan nan nan nan nan nan nan nan nan nan nan nan nan nan nan nan nan nan nan nan nan nan nan nan nan nan nan nan nan nan nan nan nan nan nan nan nan nan nan nan nan nan nan nan nan nan nan nan nan nan nan nan nan nan nan nan nan nan nan nan nan nan nan nan nan nan nan nan nan nan nan 0 2 nan nan nan
nan nan nan nan nan nan nan nan nan nan nan nan nan nan nan nan nan nan nan nan nan nan nan nan nan nan nan nan nan nan nan nan nan nan nan nan nan nan nan nan nan nan nan nan nan nan nan nan nan nan nan nan nan nan nan nan nan nan nan nan nan nan nan nan nan nan nan nan nan nan nan nan nan nan nan nan nan nan nan nan nan 8 7 nan nan nan
nan nan nan nan nan nan nan nan nan nan nan nan nan nan nan nan nan nan nan nan nan nan nan nan nan nan nan nan nan nan nan nan nan nan nan nan nan nan nan nan nan nan nan nan nan nan nan nan nan nan nan nan nan nan nan nan nan nan nan nan nan nan nan nan nan nan nan nan nan nan nan nan nan nan nan nan nan nan nan nan nan nan nan nan nan nan
nan nan nan nan nan nan nan nan nan nan nan nan nan nan nan nan nan nan nan nan nan nan nan nan nan nan 0 nan nan nan nan nan nan nan nan nan nan nan nan nan nan nan nan nan nan nan nan nan nan nan nan nan nan nan nan nan nan nan nan nan nan nan nan nan nan nan nan nan nan nan nan nan nan nan nan nan nan nan nan nan nan nan nan nan nan nan
nan nan nan nan nan nan nan nan nan nan nan nan nan nan nan nan nan nan nan nan nan nan nan nan nan nan nan nan nan nan nan nan nan nan nan nan nan nan nan nan nan nan nan nan nan nan nan nan nan nan nan nan nan nan nan nan nan nan nan nan nan nan nan nan nan nan nan nan nan nan nan nan nan nan nan nan nan nan nan nan nan nan nan nan nan nan
nan nan nan nan nan nan nan nan nan nan nan nan nan nan nan nan nan nan nan nan nan nan nan nan nan nan nan nan nan nan nan nan nan nan nan nan nan nan nan nan nan nan nan nan nan nan nan nan nan nan nan nan nan nan nan nan nan nan nan nan nan nan nan nan nan nan nan nan nan nan nan nan nan nan nan nan nan nan nan nan nan nan nan nan nan nan
nan nan nan nan nan nan nan nan nan nan nan nan nan nan nan nan nan nan nan nan nan nan nan nan nan nan nan nan nan nan nan nan nan nan nan nan nan nan nan nan nan nan nan nan nan nan nan nan nan nan nan nan nan nan nan nan nan nan nan nan nan nan nan nan nan nan nan nan nan nan nan nan nan nan nan nan nan nan nan nan nan nan nan nan nan nan
nan nan nan nan nan nan nan nan nan nan nan nan nan nan nan nan 2 2 nan nan nan nan nan nan nan nan nan nan nan nan nan nan nan nan nan nan nan nan nan nan nan nan nan nan nan nan nan nan nan nan nan nan nan nan nan nan nan nan nan nan nan nan nan nan nan nan nan nan nan nan nan nan nan nan nan nan nan nan nan nan nan nan nan nan nan nan
nan nan nan nan nan nan nan nan nan nan nan nan nan nan nan nan nan nan nan nan nan nan nan nan nan nan nan nan nan nan nan nan nan nan nan nan nan nan nan nan nan nan nan nan nan nan nan nan nan nan nan nan nan nan nan nan nan nan nan nan nan nan nan nan nan nan nan nan nan nan nan nan nan nan nan nan nan nan nan nan nan nan nan nan nan nan
nan nan nan nan nan nan nan nan nan nan nan nan nan nan nan nan nan nan nan nan nan nan nan nan nan nan nan nan nan nan nan nan nan nan nan nan nan nan nan nan nan nan nan nan nan nan nan nan nan nan nan 0 nan nan nan nan nan nan nan nan nan nan nan nan nan nan nan nan nan nan nan nan nan nan nan 0 nan nan nan nan nan nan nan nan nan nan
CIN
nan nan nan nan nan nan nan nan nan nan nan nan nan nan nan nan nan nan nan nan nan nan nan nan nan nan nan nan nan nan nan nan nan nan nan nan nan nan nan nan nan nan nan nan nan nan -0 -0 -0 -0 -0 -0 -0 -0 -0 -0 -0 -0 -0 -0 -0 -0 -0 -0 -0 -0 -0 -0 -0 -0 -0 -0 -0 -0 -0 -0 -0 -0 -0 -0 -0 -0 -0 -0 -0 -0
nan nan nan nan nan nan nan nan nan nan nan nan nan nan nan nan nan nan nan nan nan nan nan nan nan nan nan nan nan nan nan nan nan nan nan nan nan nan nan nan nan nan nan nan nan nan -0 -0 -0 -0 -0 -0 -0 -0 -0 -0 -0 -0 -0 -0 -0 -0 -0 -0 -0 -0 -0 -0 -0 -0 -0 -0 -0 -0 -0 -0 -0 -0 -0 -0 -0 -0 -0 -0 -0 -0
nan nan nan nan nan nan nan nan nan nan nan nan nan nan nan nan nan nan nan nan nan nan nan nan nan nan nan nan nan nan nan nan nan nan nan nan nan nan nan nan nan nan nan nan nan nan nan -0 -0 -0 -0 -0 -0 -0 -0 -0 -0 -0 -0 -0 -0 -0 -0 -0 -0 -0 -0 -0 -0 -0 -0 -0 -0 -0 -0 -0 -0 -0 -0 -0 -0 -0 -0 -0 -0 -0
nan nan nan nan nan nan nan nan nan nan nan nan nan nan nan nan nan nan nan nan nan nan nan nan nan nan nan nan nan nan nan nan nan nan nan nan nan nan nan nan nan nan nan nan nan nan nan nan nan nan nan -0 -0 -0 -0 -0 -0 -0 -0 -0 -0 -0 -0 -0 -0 -0 -0 -0 -0 -0 -0 -0 -0 -0 -0 -0 -0 -0 -0 -0 -0 -0 -0 -0 -0 -0
nan nan nan nan nan nan nan nan nan nan nan nan nan nan nan nan nan nan nan nan nan nan nan nan nan nan nan nan nan nan nan nan nan nan nan nan nan nan nan nan nan nan nan nan nan nan nan nan nan nan nan nan nan nan -0 -0 -0 -0 -0 nan nan nan nan nan nan -0 -0 -0 -0 -0 -0 -0 -0 -0 -0 -0 -0 -0 -0 -0 -0 -0 -0 -0 -0 -0
nan nan nan nan nan nan nan nan nan nan nan nan nan nan nan nan nan nan nan nan nan nan nan nan nan nan nan nan nan nan nan nan nan nan nan nan nan nan nan nan nan nan nan nan nan nan nan nan nan nan nan nan nan nan -0 -0 -0 nan nan nan nan nan nan nan nan nan -0 -0 -0 -0 -0 -0 -0 -0 -0 -0 -0 -0 -0 -0 -0 -0 -0 -0 -0 -0
nan nan nan nan nan nan nan nan nan nan nan nan nan nan nan nan nan nan nan nan nan nan nan nan nan nan nan nan nan nan nan nan nan nan nan nan nan nan nan nan nan nan nan nan nan nan nan nan nan nan nan nan nan nan nan -0 -0 nan nan nan nan nan nan nan nan -0 -0 -0 -0 -0 -0 -0 -0 -0 -0 -0 -0 -0 -0 -0 -0 -0 -0 -0 -0 -0
nan nan nan nan nan nan nan nan nan nan nan nan nan nan nan nan nan nan nan nan nan nan nan nan nan nan nan nan nan nan nan nan nan nan nan nan nan nan nan nan nan nan nan nan nan nan nan nan nan nan nan nan nan nan -0 -0 -0 nan nan nan nan nan nan nan nan -0 -0 -0 -0 -0 -0 -0 -0 -0 -0 -0 -0 -0 -0 -0 -0 -0 -0 -0 -0 -0
nan nan nan nan nan nan nan nan nan nan nan nan nan nan nan nan nan nan nan nan nan nan nan nan nan nan nan nan nan nan nan nan nan nan nan nan nan nan nan nan nan nan nan nan nan nan nan nan nan nan nan nan -0 -0 -0 nan nan nan nan nan nan nan nan nan nan -0 -0 -0 -0 -0 -0 -0 -0 -0 -0 -0 -0 -0 -0 -0 -0 -0 -0 -0 -0 -0
nan nan nan nan nan nan nan nan nan nan nan nan nan nan nan nan nan nan nan nan nan nan nan nan nan nan nan nan nan nan nan nan nan nan nan nan nan nan nan nan nan nan nan nan nan nan nan nan nan nan nan nan nan nan nan nan nan nan nan nan nan nan nan -0 -0 -0 -0 -0 -0 -0 -0 -0 -0 -0 -0 -0 -0 -0 -0 -0 -0 -0 -0 -0 -0 -0
nan nan nan nan nan nan nan nan nan nan nan nan nan nan nan nan nan nan nan nan nan nan nan nan nan nan nan nan nan nan nan nan nan nan nan nan nan nan nan nan nan nan nan nan nan nan nan nan nan nan nan nan nan nan nan nan nan nan nan nan nan nan nan -0 -0 -0 -0 -0 -0 -0 -0 -0 -0 -0 -0 -0 -0 -0 -0 -0 -0 -0 -0 -0 -0 -0
nan nan nan nan nan nan nan nan nan nan nan nan nan nan nan nan nan nan nan nan nan nan nan nan nan nan nan nan nan nan nan nan nan nan nan nan nan nan nan nan nan nan nan nan nan nan nan nan nan nan nan nan nan nan nan nan nan nan nan nan nan nan nan -0 -0 -0 -0 -0 -0 -0 -0 -0 -0 -0 -0 -0 -0 -0 -0 -0 -0 -0 -0 -0 -0 -0
nan nan nan nan nan nan nan nan nan nan nan nan nan nan nan nan nan nan nan nan nan nan nan nan nan nan nan nan nan nan nan nan nan nan nan nan nan nan nan nan nan nan nan nan nan nan nan nan nan nan nan nan nan nan nan nan nan nan nan nan nan nan -0 -0 -0 -0 -0 -0 -0 -0 -0 -0 -0 -0 -0 -0 -0 -0 -0 -0 -0 -0 -0 -0 -0 -0
nan nan nan nan nan nan nan nan nan nan nan nan nan nan nan nan nan nan nan nan nan nan nan nan nan nan nan nan nan nan nan nan nan nan nan nan nan nan nan nan nan nan nan nan nan nan nan nan nan nan nan nan nan nan nan nan nan nan nan nan nan nan -0 -0 -0 -0 -0 -0 -0 -0 -0 -0 -0 -0 -0 -0 -0 -0 -0 -0 -0 -0 -0 -0 -0 -0
nan nan nan nan nan nan nan nan nan nan nan nan nan nan nan nan nan nan nan nan nan nan nan nan nan nan nan nan nan nan nan nan nan nan nan nan nan nan nan nan nan nan nan nan nan nan nan nan nan nan nan nan nan nan nan nan nan nan nan nan nan -0 -0 -0 -0 -0 -0 -0 -0 -0 -0 -0 -0 -0 -0 -0 -0 -0 -0 -0 -0 -0 -0 -0 -0 -0
nan nan nan nan nan nan nan nan nan nan nan nan nan nan nan nan nan nan nan nan nan nan nan nan nan nan nan nan nan nan nan nan nan nan nan nan nan nan nan nan nan nan nan nan nan nan nan nan nan nan nan nan nan nan nan nan nan nan nan nan nan -0 -0 -0 -0 -0 -0 -0 -0 -0 -0 -0 -0 -0 -0 -0 -0 -0 -0 -0 -0 -0 -0 -0 -0 -0
nan nan nan nan nan nan nan nan nan nan nan nan nan nan nan nan nan nan nan nan nan nan nan nan nan nan nan nan nan nan nan nan nan nan nan nan nan nan nan nan nan nan nan nan nan nan nan nan nan nan nan nan nan nan nan nan nan nan nan -0 -0 -0 -0 -0 -0 -0 -0 -0 -0 -0 -0 -0 -0 -0 -0 -0 -0 -0 -0 -0 -0 -0 -0 -0 -0 -0
nan nan nan nan nan nan nan nan nan nan nan nan nan nan nan nan nan nan nan nan nan nan nan nan nan nan nan nan nan nan nan nan nan nan nan nan nan nan nan nan nan nan nan nan nan nan nan nan nan nan nan nan nan nan nan nan nan nan -0 -0 -0 -0 -0 -0 -0 -0 -0 -0 -0 -0 -0 -0 -0 -0 -0 -0 -0 -0 -0 -0 -0 -0 -0 -0 -0 -0
nan nan nan nan nan nan nan nan nan nan nan nan nan nan nan nan nan nan nan nan nan nan nan nan nan nan nan nan nan nan nan nan nan nan nan nan nan nan nan nan nan nan nan nan nan nan nan nan nan nan nan nan nan nan nan nan nan -0 -0 -0 -0 -0 -0 -0 -0 -0 -0 -0 -0 -0 -0 -0 -0 -0 -0 -0 -0 -0 -0 -0 -0 -0 -0 -0 -0 -0
nan nan nan nan nan nan nan nan nan nan nan nan nan nan nan nan nan nan nan nan nan nan nan nan nan nan nan nan nan nan nan nan nan nan nan nan nan nan nan nan nan nan nan nan nan nan nan nan nan nan nan nan nan nan nan -0 -0 -0 -0 -0 -0 -0 -0 -0 -0 -0 -0 -0 -0 -0 -0 -0 -0 -0 -0 -0 -0 -0 -0 -0 -0 -0 -0 -0 -0 -0
nan nan nan nan nan nan nan nan nan nan nan nan nan nan nan nan nan nan nan nan nan nan nan nan nan nan nan nan nan nan nan nan nan nan nan nan nan nan nan nan nan nan nan nan nan nan nan nan nan nan nan nan nan nan nan -0 -0 -0 -0 -0 -0 -0 -0 -0 -0 nan -0 -0 -0 -0 -0 -0 -0 -0 -0 -0 -0 -0 -0 -0 -0 -0 -0 -0 -0 -0
nan nan nan nan nan nan nan nan nan nan nan nan nan nan nan nan nan nan nan nan nan nan nan nan nan nan nan nan nan nan nan nan nan nan nan nan nan nan nan nan nan nan nan nan nan nan nan nan nan nan nan nan nan nan nan nan nan -0 -0 -0 -0 -0 nan nan nan nan -0 -0 -0 -0 -0 -0 -0 -0 -0 -0 -0 -0 -0 -0 -0 -0 -0 -0 -0 -0
nan nan nan nan nan nan nan nan nan nan nan nan nan nan nan nan nan nan nan nan nan nan nan nan nan nan nan nan nan nan nan nan nan nan nan nan nan nan nan nan nan nan nan nan nan nan nan nan nan nan nan nan nan nan nan nan nan -0 -0 nan nan nan nan -0 -0 -0 -0 -0 -0 -0 -0 -0 -0 -0 -0 -0 -0 -0 -0 -0 -0 -0 -0 -0 -0 -0
nan nan nan nan nan nan nan nan nan nan nan nan nan nan nan nan nan nan nan nan nan nan nan nan nan nan nan nan nan nan nan nan nan nan nan nan nan nan nan nan nan nan nan nan nan nan nan nan nan nan nan nan nan nan nan nan nan nan nan nan nan nan nan -0 -0 -0 -0 -0 -0 -0 -0 -0 -0 -0 -0 -0 -0 -0 -0 -0 -0 -0 -0 -0 -0 -0
nan nan nan nan nan nan nan nan nan nan nan nan nan nan nan nan nan nan nan nan nan nan nan nan nan nan nan nan nan nan nan nan nan nan nan nan nan nan nan nan nan nan nan nan nan nan nan nan nan nan nan nan nan nan nan nan nan nan nan nan nan nan nan -0 -0 -0 -0 -0 -0 -0 -0 -0 -0 -0 -0 -0 -0 -0 -0 -0 -0 -0 -0 -0 -0 -0
nan nan nan nan nan nan nan nan nan nan nan nan nan nan nan nan nan nan nan nan nan nan nan nan nan nan nan nan nan nan nan nan nan nan nan nan nan nan nan nan nan nan nan nan nan nan nan nan nan nan nan nan nan nan nan nan nan nan nan nan nan nan nan -0 -0 -0 -0 -0 -0 -0 -0 -0 -0 -0 -0 -0 -0 -0 -0 -0 -0 -0 -0 -0 -0 -0
-0 -0 -0 -0 -0 -0 -0 -1 -0 -0 -1 nan nan nan nan nan nan nan nan nan nan nan nan nan nan nan nan nan nan nan nan nan nan nan nan nan nan nan nan nan nan nan nan nan nan nan nan nan nan nan nan nan nan nan nan nan nan nan nan nan nan nan nan -0 -0 -0 -0 -0 -0 -0 -0 -0 -0 -0 -0 -0 -0 -0 -0 -0 -0 -0 -0 -0 -0 -0
-0 -0 -0 -0 -0 -0 -0 -0 -0 -0 -0 -0 -2 -2 nan nan nan nan nan nan nan nan nan nan nan nan -8 nan nan nan nan nan nan nan nan nan nan nan nan nan nan nan nan nan nan nan nan nan nan nan nan nan nan nan nan nan nan nan nan nan nan nan nan nan nan -0 -0 -0 -0 -0 -0 -0 -0 -0 -0 -0 -0 -0 -0 -0 -0 -0 -0 -0 -0 -6
-0 -0 -0 -0 -0 -0 -0 -0 -0 -0 -0 -0 -0 -0 -0 -0 -0 -0 -1 nan nan nan nan nan nan nan -10 nan nan nan nan nan nan nan nan nan nan nan nan nan nan nan nan nan nan nan nan nan nan nan nan nan nan nan nan nan nan nan nan nan nan nan nan nan nan nan -0 -0 -0 -0 -0 -0 -0 -0 -0 -0 -0 -0 -0 -0 -0 -0 -0 -0 -0 -4
nan -1 -0 -0 -0 -0 -0 -0 -0 -0 -0 -0 -0 -0 -0 -0 -1 -1 nan nan nan nan nan nan nan nan nan nan nan nan nan nan nan nan nan nan nan nan nan nan nan nan nan nan nan nan nan nan nan nan nan nan nan nan nan nan nan nan nan nan nan nan nan nan nan nan -0 -0 -0 -0 -0 -0 -0 -0 -0 -0 -0 -0 -0 -0 -0 -0 -0 -3 -3 -4
nan nan nan nan nan nan nan nan nan nan -1 -0 -0 -0 -14 nan nan nan nan nan nan nan nan nan nan nan nan nan nan nan nan nan nan nan nan nan nan nan nan nan nan nan nan nan nan nan nan nan nan nan nan nan nan nan nan nan nan nan nan nan nan nan nan nan nan nan nan -0 -0 -0 -0 -0 -0 -0 -0 -0 -0 -0 -0 -0 -0 -0 -2 -6 -6 -5
nan nan nan nan nan nan nan nan nan nan nan nan nan nan nan nan nan nan nan nan nan nan nan nan nan nan nan nan nan nan nan nan nan nan nan nan nan nan nan nan nan nan nan nan nan nan nan nan nan nan nan nan nan nan nan nan nan nan nan nan nan nan nan nan nan nan nan nan nan nan -0 -0 -0 -0 -0 -0 -0 -0 -0 -0 -0 -0 -0 -5 -5 -3
nan nan nan nan nan nan nan nan nan nan nan nan nan nan nan nan nan nan nan nan nan nan nan nan nan nan nan nan nan nan nan nan nan nan nan nan nan nan nan nan nan nan nan nan nan nan nan nan nan nan nan nan nan nan nan nan nan nan nan nan nan nan nan nan nan nan nan nan nan nan nan nan -0 -0 -0 -0 -0 -0 -0 -0 -0 -0 -0 -4 -4 -3
nan nan nan nan nan nan nan nan nan nan nan nan nan nan nan nan nan nan nan nan nan nan nan nan nan nan nan nan nan nan nan nan nan nan nan nan nan nan nan nan nan nan nan nan nan nan nan nan nan nan nan nan nan nan nan nan nan nan nan nan nan nan nan nan nan nan nan nan nan nan nan nan nan nan nan -0 -0 -0 -0 -0 -0 -0 -0 -0 -0 -0
nan nan nan nan nan nan nan nan nan nan nan nan nan nan nan nan nan nan nan nan nan nan nan nan nan nan nan nan nan nan nan nan nan nan -24 nan nan nan nan nan nan nan nan nan nan nan nan -18 -18 -9 -11 -13 nan nan nan nan nan nan nan nan nan nan nan nan nan nan nan nan nan nan nan nan nan nan nan nan -0 -0 -0 -0 -0 -0 -0 -0 -0 -0
nan nan nan nan nan nan nan nan nan nan nan nan nan nan nan nan nan nan nan nan nan nan nan nan nan nan nan nan nan nan nan nan nan nan nan nan nan nan nan nan nan nan nan nan nan -19 -16 nan nan -4 -3 -6 nan nan nan nan nan nan nan nan nan nan nan nan nan nan nan nan nan nan nan nan nan nan nan -0 -0 -0 -0 -0 -0 -0 -0 -0 -0 -0
nan nan nan nan nan nan nan nan nan nan nan nan nan nan nan nan nan nan nan nan nan nan nan nan nan nan nan nan nan nan nan nan nan nan nan nan nan nan nan nan nan -21 nan -17 -17 -15 nan nan nan -7 -10 -13 nan nan nan nan nan nan nan nan nan nan nan nan nan nan nan nan nan nan nan nan nan nan nan -0 -0 -0 -0 -0 -0 -0 -0 -0 -0 -0
nan nan nan nan nan nan nan nan nan nan nan nan nan nan nan nan nan nan nan nan nan nan nan nan nan nan nan nan nan nan nan nan nan nan nan nan nan nan nan nan nan -18 -22 nan nan nan nan nan nan nan nan nan nan nan nan nan nan nan nan nan nan nan nan nan nan nan nan nan nan nan nan nan nan nan nan nan nan nan nan nan nan -0 -0 -0 -0 -0
nan nan nan nan nan nan nan nan nan nan nan nan nan nan nan nan nan nan nan nan nan nan nan nan nan nan nan nan nan nan nan nan nan nan nan nan nan nan nan nan nan -25 nan nan nan nan nan nan nan nan nan nan nan nan nan nan nan nan nan nan nan nan nan nan nan nan nan nan nan nan nan nan nan nan nan nan nan nan nan nan nan nan nan nan nan -0
nan nan nan nan nan nan nan nan nan nan nan nan nan nan nan nan nan nan nan nan nan nan nan nan nan nan nan nan nan nan nan nan nan nan nan nan nan nan nan nan nan nan nan nan nan nan nan nan nan nan nan nan nan nan nan nan nan nan nan nan nan nan nan nan nan nan nan nan nan nan nan nan nan nan nan nan nan nan nan nan nan nan nan nan nan nan
nan nan nan nan nan nan nan nan nan nan nan nan nan nan nan nan nan nan nan nan nan nan nan nan nan nan nan nan nan nan nan nan nan nan nan nan nan nan nan nan nan nan nan nan nan nan nan nan nan nan nan nan nan nan nan nan nan nan -0 nan nan nan nan nan nan nan nan nan nan nan nan nan nan nan nan nan nan nan nan nan nan nan nan nan nan nan
-1 nan nan nan nan nan nan nan nan nan nan nan nan nan nan nan nan nan nan nan nan nan nan nan nan nan nan nan nan nan nan nan nan nan nan nan nan nan nan nan nan nan nan nan nan nan nan nan nan nan nan nan nan nan nan nan nan nan nan nan nan nan nan nan nan nan nan nan nan nan nan nan nan nan nan nan nan nan nan nan nan -8 -1 nan nan nan
nan nan nan nan nan nan nan nan nan nan nan nan nan nan nan nan nan nan nan nan nan nan nan nan nan nan nan nan nan nan nan nan nan nan nan nan nan nan nan nan nan nan nan nan nan nan nan nan nan nan nan nan nan nan nan nan nan nan nan nan nan nan nan nan nan nan nan nan nan nan nan nan nan nan nan nan nan nan nan nan nan -0 -0 nan nan nan
nan nan nan nan nan nan nan nan nan nan nan nan nan nan nan nan nan nan nan nan nan nan nan nan nan nan nan nan nan nan nan nan nan nan nan nan nan nan nan nan nan nan nan nan nan nan nan nan nan nan nan nan nan nan nan nan nan nan nan nan nan nan nan nan nan nan nan nan nan nan nan nan nan nan nan nan nan nan nan nan nan nan nan nan nan nan
nan nan nan nan nan nan nan nan nan nan nan nan nan nan nan nan nan nan nan nan nan nan nan nan nan nan -8 nan nan nan nan nan nan nan nan nan nan nan nan nan nan nan nan nan nan nan nan nan nan nan nan nan nan nan nan nan nan nan nan nan nan nan nan nan nan nan nan nan nan nan nan nan nan nan nan nan nan nan nan nan nan nan nan nan nan nan
nan nan nan nan nan nan nan nan nan nan nan nan nan nan nan nan nan nan nan nan nan nan nan nan nan nan nan nan nan nan nan nan nan nan nan nan nan nan nan nan nan nan nan nan nan nan nan nan nan nan nan nan nan nan nan nan nan nan nan nan nan nan nan nan nan nan nan nan nan nan nan nan nan nan nan nan nan nan nan nan nan nan nan nan nan nan
nan nan nan nan nan nan nan nan nan nan nan nan nan nan nan nan nan nan nan nan nan nan nan nan nan nan nan nan nan nan nan nan nan nan nan nan nan nan nan nan nan nan nan nan nan nan nan nan nan nan nan nan nan nan nan nan nan nan nan nan nan nan nan nan nan nan nan nan nan nan nan nan nan nan nan nan nan nan nan nan nan nan nan nan nan nan
nan nan nan nan nan nan nan nan nan nan nan nan nan nan nan nan nan nan nan nan nan nan nan nan nan nan nan nan nan nan nan nan nan nan nan nan nan nan nan nan nan nan nan nan nan nan nan nan nan nan nan nan nan nan nan nan nan nan nan nan nan nan nan nan nan nan nan nan nan nan nan nan nan nan nan nan nan nan nan nan nan nan nan nan nan nan
nan nan nan nan nan nan nan nan nan nan nan nan nan nan nan nan -0 -0 nan nan nan nan nan nan nan nan nan nan nan nan nan nan nan nan nan nan nan nan nan nan nan nan nan nan nan nan nan nan nan nan nan nan nan nan nan nan nan nan nan nan nan nan nan nan nan nan nan nan nan nan nan nan nan nan nan nan nan nan nan nan nan nan nan nan nan nan
nan nan nan nan nan nan nan nan nan nan nan nan nan nan nan nan nan nan nan nan nan nan nan nan nan nan nan nan nan nan nan nan nan nan nan nan nan nan nan nan nan nan nan nan nan nan nan nan nan nan nan nan nan nan nan nan nan nan nan nan nan nan nan nan nan nan nan nan nan nan nan nan nan nan nan nan nan nan nan nan nan nan nan nan nan nan
nan nan nan nan nan nan nan nan nan nan nan nan nan nan nan nan nan nan nan nan nan nan nan nan nan nan nan nan nan nan nan nan nan nan nan nan nan nan nan nan nan nan nan nan nan nan nan nan nan nan nan -0 nan nan nan nan nan nan nan nan nan nan nan nan nan nan nan nan nan nan nan nan nan nan nan -9 nan nan nan nan nan nan nan nan nan nan
Wind_Speed
1 1 1 0 0 0 1 1 0 0 0 1 1 1 1 1 1 0 0 0 0 0 1 1 2 2 3 4 5 5 5 4 4 3 3 3 4 5 6 7 7 8 8 7 7 7 7 7 7 7 8 9 9 10 11 11 12 12 13 13 13 13 13 13 13 13 13 13 14 14 14 14 14 14 14 14 14 14 14 14 14 14 14 14 15 15
1 1 1 1 1 1 1 1 1 1 1 1 1 1 1 2 2 1 1 0 0 1 1 1 2 2 3 4 5 5 5 4 3 3 2 3 4 5 6 7 7 7 7 7 7 7 7 7 7 8 8 9 10 10 11 12 12 12 12 12 12 12 13 13 13 13 13 13 13 13 13 13 13 13 13 14 14 14 14 14 14 14 14 15 15 15
2 1 1 1 0 1 1 2 2 2 2 2 1 1 1 1 2 2 2 1 1 1 1 2 2 2 3 4 5 5 5 4 3 2 2 3 4 5 6 7 7 7 7 7 7 7 7 7 8 8 9 9 10 11 11 12 12 12 12 12 12 12 12 12 12 13 13 13 13 13 13 13 13 13 13 14 14 14 14 14 15 15 15 15 16 16
1 1 2 1 1 1 2 2 2 2 2 2 1 1 0 0 1 1 2 2 2 2 2 2 2 2 3 3 4 5 5 4 3 2 2 3 4 5 6 7 7 7 7 7 7 7 7 7 8 8 9 10 10 11 11 11 11 11 11 11 11 11 12 12 12 12 12 12 12 12 13 13 13 13 14 14 14 14 15 15 15 15 15 16 16 16
2 2 1 1 1 1 2 2 2 2 1 1 1 0 0 1 1 2 2 2 2 2 2 2 2 2 2 3 3 4 5 4 3 3 3 4 5 6 6 7 7 7 6 6 7 7 7 8 8 9 9 10 10 11 11 11 11 10 10 10 11 11 11 11 12 12 12 12 12 12 13 13 13 14 14 14 15 15 15 15 15 15 16 16 16 17
2 2 1 1 1 1 1 1 1 1 0 0 0 0 0 1 1 1 2 2 2 2 2 2 2 2 2 3 4 4 5 4 3 3 3 4 5 6 6 6 6 6 6 6 7 7 7 8 9 9 10 10 10 10 10 10 10 10 10 10 10 11 11 11 11 12 12 12 12 13 13 13 14 14 14 15 15 15 15 15 16 16 16 16 17 17
2 1 0 1 1 1 1 1 1 0 0 0 1 1 1 1 1 1 1 1 2 2 2 2 2 2 2 2 3 4 4 3 3 3 3 4 5 5 6 6 6 6 7 7 7 8 8 9 9 10 10 10 10 10 10 9 9 9 10 10 10 11 11 11 12 12 12 12 13 13 13 14 14 14 15 15 15 15 16 16 16 16 16 17 17 17
1 1 1 1 1 1 1 1 1 0 1 1 0 1 2 2 1 1 1 1 1 1 2 2 2 2 2 2 2 2 2 2 2 2 3 3 4 4 5 6 6 6 7 7 8 8 9 9 10 10 10 10 10 10 9 9 9 9 10 10 10 11 11 11 12 12 12 13 13 13 14 14 14 15 15 15 15 15 16 16 16 16 16 17 17 17
1 1 1 1 1 1 1 1 1 0 1 1 1 1 1 1 2 2 2 2 1 1 1 1 2 2 2 2 1 1 1 1 2 2 2 2 2 2 4 5 5 6 7 8 8 9 10 10 11 11 11 10 10 10 9 9 9 9 10 10 10 11 11 12 12 12 13 13 14 14 14 14 15 15 15 15 15 15 16 16 16 16 17 17 17 17
1 1 1 1 1 1 2 2 1 0 1 1 1 1 1 1 1 1 2 3 2 1 0 0 1 2 2 2 2 1 1 2 3 3 3 2 2 3 3 4 4 6 7 8 9 9 10 11 11 11 11 11 10 10 9 9 9 10 10 10 11 11 11 12 12 13 13 13 14 14 14 15 15 15 15 15 15 15 16 16 16 16 17 17 17 17
1 1 1 1 1 1 1 1 1 1 1 1 1 1 1 1 1 1 1 2 3 2 1 1 1 1 1 2 2 1 1 1 2 3 3 3 3 3 3 4 4 5 7 8 8 9 10 10 11 11 11 11 10 10 10 10 10 10 10 10 11 11 11 12 12 13 13 14 14 14 15 15 15 15 15 15 15 16 16 16 16 16 16 17 17 17
2 1 1 1 1 0 1 0 1 1 1 1 1 1 1 1 1 2 1 2 2 2 2 2 1 2 2 2 1 1 1 1 1 2 3 3 3 2 2 3 3 4 5 6 7 8 9 10 10 10 10 10 10 10 10 10 10 10 10 11 11 11 12 12 13 13 14 14 14 14 15 15 15 15 15 15 15 15 16 16 16 16 16 17 17 17
2 1 1 1 1 1 1 1 1 1 1 1 1 1 2 1 1 1 2 2 2 2 1 1 2 2 2 2 1 1 0 0 1 1 2 2 1 1 1 1 1 2 2 3 4 5 7 8 9 9 9 10 10 11 11 11 11 11 11 11 11 11 12 12 13 13 14 14 14 14 15 15 15 15 15 15 15 15 16 16 16 16 16 17 17 17
2 1 1 1 1 1 1 2 2 2 2 2 2 2 2 1 1 1 1 1 1 1 0 1 2 2 2 2 1 1 1 0 0 1 1 1 1 1 1 1 1 1 1 1 2 3 5 6 6 6 8 9 9 10 11 11 11 11 11 11 12 12 12 13 13 13 14 14 14 14 14 15 15 15 15 15 15 15 16 16 16 16 17 17 17 18
3 2 2 3 3 2 2 2 3 3 3 3 2 1 1 1 1 1 1 1 1 1 1 1 2 3 2 2 1 1 1 1 0 0 1 2 2 2 2 1 1 2 1 2 2 3 4 4 3 4 5 6 7 8 10 10 11 11 11 12 12 12 13 13 13 14 14 14 14 14 14 14 14 14 15 15 15 16 16 16 17 17 17 18 18 18
3 3 4 4 3 3 2 3 3 3 3 2 2 2 2 2 2 2 1 1 1 1 1 2 2 3 3 2 1 1 1 1 1 1 1 2 2 2 3 1 1 2 2 2 2 2 2 2 3 3 4 6 8 10 11 10 11 11 12 12 13 13 13 13 13 13 14 13 14 14 14 14 14 14 15 15 16 16 17 17 17 18 18 18 19 19
3 4 4 4 4 3 2 2 3 3 2 2 2 2 3 3 3 2 2 1 1 1 1 1 1 1 2 2 1 1 2 1 1 1 1 2 2 2 3 2 2 2 2 2 2 2 2 3 3 3 4 7 9 10 11 11 11 12 12 13 13 13 13 13 13 13 13 13 13 13 13 14 14 15 16 16 17 17 18 18 18 18 19 19 19 19
4 4 4 4 4 3 2 2 2 2 2 2 2 2 2 2 2 2 2 2 2 1 1 1 1 1 1 2 2 2 2 2 1 1 1 2 3 2 2 2 2 2 2 2 2 2 3 3 3 3 5 7 9 10 11 11 11 12 12 13 13 13 13 13 13 13 12 12 13 13 14 14 15 16 16 17 17 18 18 18 19 19 19 19 19 19
4 4 4 4 4 3 3 3 3 3 3 3 3 2 2 1 1 2 2 2 2 3 2 2 2 2 2 2 2 2 2 2 1 0 2 3 3 1 2 2 2 2 2 2 2 3 3 3 4 6 7 9 10 10 11 11 11 12 12 13 13 13 13 12 12 12 12 12 13 13 14 15 16 17 17 18 18 18 18 18 18 19 19 19 19 19
5 5 5 4 3 3 3 3 4 4 4 4 3 3 3 2 2 2 2 2 3 3 3 3 3 2 2 2 2 2 2 2 1 1 2 3 3 2 2 2 2 2 2 2 3 3 3 3 4 5 7 8 9 10 11 11 12 12 12 12 12 12 12 11 11 11 12 12 13 14 15 16 17 17 18 18 18 18 18 18 18 18 18 19 19 19
5 5 5 4 3 3 3 4 4 5 5 5 4 3 3 3 3 3 3 3 3 3 2 3 3 3 3 3 2 2 3 3 2 1 2 3 3 2 1 2 2 2 2 2 3 3 3 3 3 4 6 7 9 10 11 11 12 12 12 12 12 11 11 11 11 11 12 13 14 15 16 17 17 18 18 18 18 18 18 18 18 18 18 19 19 19
5 5 4 4 4 4 4 4 5 6 6 6 5 4 3 3 3 3 3 3 3 3 4 4 4 4 3 3 3 2 4 4 3 2 2 3 3 2 1 1 1 1 2 2 2 2 2 3 3 4 6 8 9 10 11 12 12 12 11 11 10 10 10 10 10 11 13 14 15 16 17 17 18 18 18 18 18 18 18 18 18 19 19 19 20 20
5 4 4 4 4 4 4 4 4 5 6 6 5 4 3 4 4 4 4 4 4 4 4 4 4 3 3 3 2 2 3 3 3 2 2 3 3 3 1 1 1 1 2 2 2 2 2 2 3 4 6 8 10 11 12 12 12 11 11 10 9 9 9 10 11 12 13 15 16 17 17 17 18 18 18 18 18 18 18 18 19 19 19 20 20 20
5 4 4 4 4 4 3 3 4 4 5 5 4 4 4 4 4 4 4 4 4 3 3 3 3 3 3 3 3 3 3 4 3 3 2 3 3 3 1 1 1 2 3 2 2 2 2 2 3 3 4 7 10 11 12 12 11 10 10 9 9 9 9 10 11 13 14 15 16 17 17 17 17 17 18 18 18 18 19 19 19 20 20 20 20 21
4 4 4 4 5 6 5 5 5 5 5 4 4 4 4 4 4 4 3 3 2 2 2 3 3 4 3 4 3 3 3 4 4 3 2 2 3 2 1 1 1 2 3 2 1 1 1 2 2 3 3 6 8 11 11 11 11 10 9 9 9 9 10 11 12 13 14 15 16 16 17 17 17 18 18 18 19 19 19 20 20 20 20 20 20 20
5 5 6 7 8 10 10 10 10 10 9 7 5 4 4 4 3 3 3 3 3 3 3 4 4 4 3 3 3 2 2 2 3 3 3 2 2 2 2 1 1 2 3 2 1 1 1 2 3 2 3 4 7 9 10 10 10 9 9 9 10 10 11 12 13 14 15 15 15 16 16 17 17 18 18 19 19 20 20 20 20 20 20 20 20 19
9 9 10 11 12 13 13 13 14 14 14 12 10 8 6 4 3 3 4 4 4 4 4 5 5 4 3 2 2 2 1 2 2 3 3 2 2 2 2 1 1 1 2 2 2 2 3 3 3 3 3 3 4 6 8 9 9 9 9 10 11 12 13 13 14 14 14 15 15 16 16 17 18 18 19 19 20 20 20 20 20 20 20 18 16 14
11 11 12 12 12 13 13 14 14 15 15 15 15 13 9 6 5 5 5 4 4 4 5 5 4 3 2 2 2 1 2 2 3 3 3 2 2 2 2 1 0 0 1 2 2 2 3 3 3 3 3 3 3 4 6 7 8 8 9 11 12 13 14 14 14 14 14 14 15 15 16 17 18 19 20 20 20 20 20 20 20 19 17 14 11 8
10 11 11 12 12 12 13 13 13 13 14 15 15 14 11 7 5 5 4 3 3 4 4 4 3 3 2 2 2 1 1 2 3 3 3 2 2 2 1 0 0 0 0 2 2 2 2 3 2 2 2 2 2 3 4 5 6 7 8 11 13 13 14 13 13 13 13 14 15 15 17 18 19 19 20 20 20 20 20 20 19 17 13 10 8 7
5 6 7 8 9 9 8 7 7 8 11 12 13 12 9 6 4 3 2 3 3 3 3 3 3 3 2 2 2 2 2 2 2 2 3 2 1 2 1 0 0 1 0 1 2 3 2 2 2 1 1 2 2 2 3 3 4 4 5 8 10 11 12 12 13 13 13 14 15 16 17 18 19 20 20 20 20 20 19 20 17 14 9 7 7 7
2 3 3 3 3 3 2 2 2 3 5 7 9 8 6 3 2 2 3 3 3 3 3 3 3 3 2 2 2 2 2 2 1 2 3 2 1 1 1 1 1 1 1 0 1 3 3 2 1 1 1 1 2 2 3 3 3 3 3 4 6 7 10 11 11 11 12 13 14 16 17 18 19 19 19 19 19 19 19 19 16 13 8 7 7 7
3 3 3 2 1 1 1 1 1 1 2 3 3 4 3 2 2 2 3 3 3 3 3 3 3 3 3 3 3 3 2 1 2 3 3 2 1 1 1 1 1 1 1 2 2 2 3 3 2 1 1 2 2 3 3 4 4 3 4 4 4 5 8 8 9 9 9 11 13 15 17 18 18 19 19 19 19 18 18 18 16 13 8 7 7 8
3 3 2 2 1 1 1 1 1 1 2 2 2 2 2 2 3 3 3 3 4 4 3 3 3 3 3 4 4 3 2 2 3 4 4 2 1 1 1 1 2 2 1 2 2 2 3 3 3 2 2 2 2 2 3 4 4 4 4 4 4 4 5 5 5 6 7 9 11 12 14 16 16 17 17 18 18 18 18 18 16 14 11 8 7 8
3 3 2 2 2 1 1 1 2 2 2 3 3 3 3 3 3 3 3 3 3 4 4 4 4 4 4 4 4 3 3 3 3 4 5 3 1 1 1 2 2 2 2 2 2 2 3 3 3 3 3 2 2 2 2 3 3 4 3 3 3 3 3 3 3 4 5 6 7 8 9 10 12 13 14 15 16 16 17 17 17 16 15 11 9 8
3 3 3 2 2 2 2 2 3 3 3 3 3 4 4 3 3 3 4 3 3 3 3 4 4 4 4 4 3 3 3 3 3 4 4 3 2 2 2 2 2 2 2 2 2 2 3 3 4 4 4 3 2 2 2 2 2 2 2 3 3 3 3 2 3 3 5 5 5 5 5 6 7 8 10 12 13 15 16 17 17 17 17 15 13 11
3 3 3 3 3 3 3 3 3 3 4 4 4 4 4 4 4 3 3 4 4 4 4 4 4 4 4 4 4 4 3 3 3 3 3 2 2 2 2 2 2 2 2 2 3 3 3 4 4 5 5 5 3 2 2 1 1 1 1 2 3 3 4 3 3 3 4 4 5 5 5 5 5 6 7 11 14 15 17 17 18 18 18 17 16 14
4 4 4 4 4 4 4 4 3 4 4 4 4 4 4 4 4 4 4 4 4 4 4 5 5 5 5 5 4 4 4 3 3 3 3 2 2 2 2 2 2 2 2 3 3 3 3 4 5 5 5 4 4 3 2 1 1 1 1 2 3 3 3 4 4 3 3 4 5 5 5 5 5 6 7 11 13 14 15 16 16 16 17 17 17 17
5 5 5 4 4 4 4 4 4 4 4 4 4 4 5 5 5 4 4 4 4 4 4 4 4 5 7 7 6 5 4 4 4 3 4 3 3 3 3 3 3 3 3 3 3 3 4 4 5 5 4 4 4 4 3 3 2 2 2 3 3 3 4 3 3 3 3 4 6 6 7 6 6 6 6 7 8 8 8 9 10 12 14 14 15 16
5 5 5 5 5 5 4 4 4 4 4 5 4 4 4 4 4 4 4 4 4 4 4 4 4 4 5 5 6 6 5 5 5 4 4 4 3 3 3 3 3 3 3 3 3 4 4 4 4 4 4 4 4 4 3 3 3 3 4 4 4 4 3 3 3 3 3 4 6 7 7 6 5 5 5 5 5 5 6 6 7 8 9 9 10 13
6 6 5 6 5 5 4 4 4 4 4 4 4 3 3 2 2 2 2 3 3 3 3 3 3 2 3 3 4 5 5 5 5 5 4 4 3 3 3 3 3 3 3 3 4 4 4 4 5 5 5 5 5 5 4 4 4 4 6 5 4 4 3 3 3 4 4 4 4 5 5 4 4 5 5 5 5 6 6 5 6 7 8 7 7 7
6 5 4 4 4 4 4 5 5 4 4 3 3 3 2 2 2 2 2 2 2 2 2 2 2 2 3 3 4 4 5 5 5 5 3 4 4 4 3 4 4 3 4 4 4 4 4 4 5 5 5 5 5 6 6 5 6 7 7 6 6 5 6 6 5 4 3 3 3 4 4 5 6 6 6 7 6 6 6 6 7 7 8 6 6 6
5 4 3 3 3 3 4 4 4 3 3 3 3 3 3 3 3 3 2 2 2 2 2 2 2 2 3 3 4 4 4 4 4 4 3 4 4 4 4 4 4 3 3 3 4 4 4 4 4 5 4 4 5 5 5 5 6 6 6 6 7 7 8 6 4 2 2 2 3 4 5 6 6 6 7 7 6 6 6 7 8 9 9 7 6 5
4 4 3 3 3 3 4 3 3 3 3 3 3 3 4 4 4 4 3 3 3 3 3 3 3 3 3 3 3 3 3 2 2 2 2 3 3 4 5 5 4 4 3 3 3 3 3 4 4 4 4 4 4 5 6 6 6 6 6 6 7 7 6 5 3 2 2 3 4 4 4 5 5 6 6 7 7 7 6 8 9 10 10 8 6 6
3 3 3 3 3 3 3 3 3 3 3 3 3 3 3 4 4 4 4 3 3 3 3 3 3 3 3 3 2 2 2 2 2 1 1 3 4 4 4 5 5 4 4 3 3 3 3 4 4 4 3 3 4 5 6 6 6 6 5 5 5 5 5 5 5 5 5 5 4 4 4 5 5 6 7 7 7 7 6 6 6 6 7 7 7 7
3 3 3 3 3 3 3 3 3 3 4 4 4 4 3 4 4 4 3 3 3 3 3 3 2 2 2 2 2 1 1 2 2 2 2 2 3 5 5 5 4 4 4 4 4 3 3 3 3 3 2 3 4 5 6 6 7 7 6 6 6 6 6 6 6 6 6 5 5 5 5 5 5 6 7 7 7 7 7 6 6 6 6 6 6 6
2 3 3 3 3 3 4 4 4 4 4 4 4 4 3 4 3 3 3 3 3 3 3 3 2 2 2 2 1 1 1 2 2 2 2 2 2 2 3 4 4 4 4 4 4 4 4 4 3 3 3 3 4 5 6 6 7 7 6 6 6 5 6 6 5 5 5 6 6 6 6 6 6 6 7 8 8 8 7 6 6 6 6 6 6 6
3 3 3 3 3 3 3 3 3 3 3 3 3 3 3 3 3 3 3 3 3 2 2 2 2 2 2 1 1 1 1 2 3 3 2 2 2 2 2 2 3 4 4 4 4 4 4 4 3 3 3 4 5 5 5 5 5 6 6 5 5 5 6 5 5 5 5 5 6 6 6 5 6 7 8 8 8 8 7 7 6 6 6 6 6 7
4 4 4 4 3 3 3 3 3 3 3 2 2 2 2 3 3 3 2 3 3 2 2 2 2 2 2 2 2 2 2 3 3 3 2 2 2 2 1 1 1 2 2 3 3 4 4 4 4 4 4 4 5 5 5 5 5 5 5 4 5 5 6 6 5 5 4 5 5 5 4 5 6 7 8 9 9 8 8 8 7 6 6 6 6 7
4 4 4 4 4 3 3 3 3 3 3 3 2 2 2 3 4 4 3 3 3 2 2 2 2 2 3 3 2 3 3 3 3 3 3 2 2 2 1 1 1 1 0 1 2 2 3 4 6 7 6 6 5 6 6 6 5 4 4 4 4 5 6 6 5 5 4 5 5 4 4 4 5 6 7 9 10 10 10 9 8 7 6 6 6 6
4 4 4 4 4 4 4 4 4 4 4 4 3 3 2 2 3 3 2 3 3 2 2 3 3 3 4 3 3 3 4 3 3 3 3 2 2 2 2 1 2 1 0 1 1 1 2 3 5 7 9 10 9 7 6 6 5 5 4 4 4 5 5 6 5 4 4 5 5 5 5 5 5 6 6 8 10 10 10 10 8 7 6 5 6 7
4 4 4 4 4 4 4 4 4 4 4 4 4 3 3 3 3 2 2 2 2 3 3 3 3 4 4 4 4 4 4 4 4 4 3 2 2 2 2 2 2 2 1 1 1 2 2 2 3 4 6 10 12 10 6 5 5 4 4 4 4 4 4 5 5 4 5 5 5 5 5 6 6 6 5 7 8 10 10 10 9 8 6 5 6 7
Wind_Direction
262 271 286 355 68 96 283 287 265 155 263 284 290 294 300 322 314 273 281 110 129 238 279 278 280 286 295 304 310 314 316 315 314 315 322 339 350 355 355 352 349 346 342 339 337 335 336 337 338 338 339 339 340 339 338 337 336 335 334 333 333 332 332 331 331 330 329 329 328 328 328 327 325 323 320 318 317 316 316 316 316 315 314 313 312 311
302 302 307 13 86 153 239 260 233 186 196 252 277 298 325 338 336 329 325 309 198 217 245 261 267 274 277 283 294 303 306 306 305 307 317 339 348 352 352 349 347 344 341 338 337 336 337 338 339 339 339 340 339 339 338 336 335 334 333 333 333 333 332 332 331 330 329 328 327 326 325 324 322 319 317 317 316 316 316 316 315 314 314 312 311 311
313 309 290 323 115 180 222 243 238 223 208 222 239 273 340 346 336 325 320 309 286 255 236 239 249 259 264 270 284 294 296 296 295 299 315 336 345 348 348 347 344 342 339 337 336 336 337 337 338 338 339 338 338 337 336 335 334 333 333 333 333 333 332 331 330 329 327 326 325 324 323 321 319 318 318 318 317 317 316 316 315 314 313 312 311 311
265 256 259 284 278 242 229 232 238 239 231 232 236 242 148 309 291 285 283 288 288 280 257 234 231 241 253 263 276 285 290 289 288 295 315 333 341 344 345 343 341 339 336 335 334 334 335 335 336 336 336 336 336 335 334 333 332 332 332 333 333 332 332 330 329 327 326 325 323 322 321 320 319 319 319 319 318 317 316 315 314 314 313 312 311 311
238 230 237 251 266 263 256 244 242 242 241 245 254 260 218 234 258 271 282 287 289 286 275 248 230 229 243 256 271 280 284 285 287 297 316 330 337 339 340 339 337 335 333 332 331 331 331 332 332 332 333 333 333 332 331 331 330 330 331 332 332 331 330 329 327 326 325 324 323 322 322 321 321 320 320 319 318 317 316 315 314 313 313 312 312 311
242 234 226 221 238 253 273 267 260 253 253 293 315 313 275 261 271 286 298 305 303 298 291 273 249 236 239 252 269 278 283 287 292 301 315 327 332 334 335 334 332 331 330 329 329 328 328 328 328 328 329 329 329 328 328 328 328 329 330 331 330 329 328 327 326 325 324 324 323 323 322 322 321 321 320 318 317 316 315 314 313 313 312 312 312 311
253 257 259 254 255 260 272 271 268 259 103 34 354 338 327 306 291 286 286 301 310 311 304 298 286 269 255 262 272 281 288 294 300 306 313 321 325 328 328 327 327 327 327 327 326 326 326 325 325 325 325 325 325 325 325 325 326 328 328 328 328 327 326 325 325 324 324 324 324 323 323 322 321 320 319 318 316 315 314 314 313 313 312 312 311 311
244 279 298 278 283 290 287 271 256 175 125 114 58 342 334 327 318 307 299 308 315 319 315 317 314 308 292 279 281 286 289 295 298 302 305 313 315 316 317 318 321 323 324 324 324 324 324 324 323 323 322 322 322 322 322 323 325 326 326 326 325 325 324 324 324 324 324 324 324 324 323 322 320 319 318 316 315 314 314 313 313 312 312 312 311 311
191 227 254 225 206 225 272 273 271 168 118 129 138 151 323 322 323 326 332 327 323 323 330 333 326 318 307 298 293 287 269 251 249 253 262 265 276 288 300 310 317 320 320 321 321 322 322 322 321 320 319 318 318 319 320 322 323 323 322 322 322 322 322 322 323 324 324 324 324 323 322 321 319 318 317 316 315 314 314 313 313 312 312 311 311 310
174 198 229 226 202 187 214 250 267 356 60 105 128 142 152 188 306 328 333 321 316 314 331 328 301 300 302 304 302 296 280 269 265 265 270 276 277 280 293 306 312 314 314 316 318 319 319 319 318 317 316 316 316 317 318 319 319 319 319 318 319 319 320 321 323 324 324 324 323 322 321 320 318 317 316 315 315 314 313 313 313 312 312 311 310 310
181 196 208 231 227 204 205 233 258 16 43 59 63 69 117 155 159 175 301 300 304 309 313 265 229 235 269 290 299 308 328 314 303 302 311 312 311 308 310 308 305 305 308 311 313 314 314 314 314 313 313 313 314 314 315 316 315 315 314 315 316 318 319 321 322 323 324 323 322 321 320 319 318 317 316 316 315 314 314 313 312 312 311 310 310 309
183 188 192 201 203 204 216 277 352 22 46 60 42 354 301 223 166 161 193 239 266 286 301 290 258 230 223 238 262 298 355 344 327 324 329 327 328 327 321 310 304 302 304 305 306 306 307 308 308 309 310 310 311 311 311 311 310 310 310 312 314 317 319 321 322 323 323 322 321 320 320 319 318 317 317 316 315 315 314 313 312 311 311 310 309 309
183 177 171 177 182 181 170 130 80 58 81 131 172 213 240 223 179 157 175 212 228 240 267 296 288 266 236 224 222 238 353 324 316 317 324 315 311 313 314 292 286 285 291 297 295 293 295 299 302 304 305 305 306 306 306 305 305 306 308 311 314 317 320 321 322 322 322 321 321 320 319 319 318 318 317 317 316 315 315 314 313 312 311 310 309 309
189 181 180 209 214 203 176 158 159 170 190 188 190 195 200 174 145 135 158 242 244 236 200 280 286 284 271 249 225 195 158 156 341 330 316 283 259 232 196 236 244 240 229 257 268 271 273 284 292 297 298 299 300 300 299 300 302 304 307 311 315 318 320 321 321 322 321 321 320 320 320 320 319 319 319 318 318 317 316 315 313 312 311 310 309 309
190 188 209 224 223 213 189 172 175 185 197 198 191 170 118 106 115 132 160 265 287 326 23 327 299 291 285 265 236 172 149 131 100 348 298 275 249 215 182 214 235 234 209 227 246 258 264 272 276 278 282 285 287 288 291 295 301 306 309 313 316 318 320 321 321 321 321 321 321 321 321 321 321 321 321 320 319 318 317 316 314 313 312 310 309 308
187 189 209 222 223 213 193 177 177 185 194 193 172 146 129 143 157 165 174 219 279 3 26 2 338 319 300 283 233 156 145 133 137 177 243 265 252 214 170 185 231 244 221 221 234 246 255 255 254 256 263 275 282 287 292 297 303 308 310 314 317 319 320 321 321 321 321 321 321 322 322 323 323 323 322 322 320 319 317 316 314 313 311 310 309 308
191 197 210 220 223 217 195 180 175 175 175 174 170 166 165 169 170 168 168 167 132 70 61 70 29 326 306 306 292 195 162 150 156 186 227 259 253 220 170 176 220 249 242 230 232 236 242 247 250 252 256 270 281 289 296 301 305 308 311 314 316 318 320 320 321 321 321 322 323 323 324 325 325 324 323 322 320 318 317 315 313 312 310 309 308 307
198 203 208 217 219 211 181 177 175 170 156 163 173 182 182 169 159 153 151 148 146 150 158 152 169 197 240 285 279 247 180 165 165 228 273 275 266 238 177 180 207 237 247 241 236 231 229 235 239 246 255 276 285 292 299 302 305 308 310 313 316 318 319 320 321 321 322 323 324 325 325 325 325 323 322 320 318 317 315 313 312 310 309 308 307 306
207 205 206 212 209 195 171 173 172 168 164 170 170 169 176 173 159 154 159 161 168 174 177 186 200 207 200 236 248 233 177 159 153 262 284 282 273 245 175 184 208 228 242 240 234 228 225 230 239 248 260 276 286 292 297 300 304 307 310 313 315 317 319 320 321 322 324 325 325 325 325 324 323 321 320 318 317 315 313 312 310 309 308 308 307 306
211 210 207 201 191 183 185 187 183 179 180 174 164 156 162 167 172 179 189 189 190 190 187 201 217 226 217 234 240 226 174 150 148 243 267 273 270 249 175 181 203 227 246 243 232 223 221 228 241 253 264 273 281 288 294 299 303 307 310 313 315 317 318 320 322 323 325 325 325 324 323 322 321 320 318 317 315 314 312 311 310 309 308 308 307 307
214 216 207 181 170 175 194 193 191 187 180 163 152 148 155 159 173 189 200 198 201 205 206 220 229 230 218 230 228 203 166 163 181 246 271 273 269 253 186 174 191 225 250 249 235 221 216 225 232 241 251 267 277 286 293 298 303 307 310 313 315 316 318 321 322 324 325 324 324 322 321 321 320 318 317 316 315 313 312 311 310 309 309 308 308 307
212 213 195 174 173 182 189 185 188 188 178 162 158 161 165 167 179 193 200 197 202 210 216 225 227 224 216 228 222 189 166 177 195 233 275 279 276 270 230 173 180 221 249 251 240 224 214 221 227 237 245 263 276 286 294 298 303 306 309 312 314 316 318 320 322 323 323 322 321 321 320 319 318 317 316 315 314 313 312 311 310 310 309 308 308 307
207 203 180 178 184 189 182 176 181 186 182 176 176 178 174 174 181 190 194 195 200 207 214 221 225 226 224 229 224 200 180 190 200 219 253 270 273 272 254 178 182 227 248 247 241 231 220 223 228 237 249 267 277 286 293 298 301 305 308 310 312 314 316 318 319 320 321 320 319 319 318 318 317 316 315 314 313 312 311 311 310 310 309 308 307 306
204 199 181 182 187 192 186 176 177 183 187 187 188 188 183 182 185 188 187 191 196 204 212 225 237 244 243 242 239 228 209 203 200 204 229 257 267 268 246 185 213 248 255 244 231 223 229 235 234 236 245 267 277 284 291 296 300 303 306 307 309 311 313 315 317 318 318 318 317 317 316 316 315 314 314 313 312 312 311 311 310 310 309 308 307 306
196 194 184 182 188 193 194 190 187 186 187 190 193 196 196 202 205 206 200 200 204 215 229 243 249 250 247 241 237 230 216 202 194 194 209 244 258 257 233 186 205 243 261 247 226 209 234 252 250 245 246 264 275 282 288 293 297 300 302 303 305 307 310 312 314 315 315 315 314 314 314 313 313 313 312 312 312 312 311 311 310 310 309 308 307 306
196 194 191 191 194 198 201 201 199 197 194 193 193 196 200 208 215 223 229 226 224 226 234 242 245 245 240 233 229 225 206 192 190 191 197 229 257 262 242 196 199 233 265 259 234 211 245 260 259 253 248 260 271 278 284 289 293 295 296 298 300 304 307 310 311 312 312 312 312 311 311 311 311 312 312 312 312 312 311 311 311 311 310 309 308 307
210 206 202 200 201 202 204 205 206 205 203 201 199 198 197 199 207 218 226 222 216 215 223 232 239 242 236 227 222 214 180 174 186 196 195 216 253 266 257 219 213 243 272 271 252 237 253 263 262 256 249 250 260 270 279 283 286 289 290 293 297 301 305 307 309 309 309 309 309 309 310 310 311 311 311 312 312 312 311 311 311 311 311 310 309 307
228 223 218 215 212 211 210 210 211 212 211 209 206 203 197 194 202 213 220 210 203 205 215 224 231 238 239 233 224 208 175 176 187 193 188 198 239 260 264 239 206 233 271 273 261 250 251 257 256 252 247 244 249 260 271 275 279 283 286 291 296 299 302 304 306 306 307 307 307 308 309 309 310 311 311 311 311 311 311 311 312 312 312 311 310 306
243 241 238 234 231 228 225 224 223 222 222 220 217 212 205 200 204 210 210 187 184 194 211 219 227 239 254 262 262 248 220 204 187 176 164 177 228 256 263 245 155 174 251 287 280 268 249 248 244 241 243 243 244 251 263 266 270 276 282 290 294 297 300 301 302 303 304 305 306 307 308 309 309 310 310 310 311 311 311 311 312 312 312 310 307 302
253 252 251 249 247 244 241 240 240 240 239 238 235 232 225 217 210 204 185 166 173 195 218 230 240 252 267 280 281 273 254 235 190 156 142 156 215 252 254 247 209 190 140 306 301 292 274 263 249 242 244 250 250 249 253 255 255 260 270 284 290 293 295 297 299 301 302 304 306 307 308 308 308 309 309 309 310 310 310 311 312 312 310 306 302 299
226 229 238 249 253 253 250 247 255 259 257 254 252 250 246 233 204 181 167 170 183 204 229 243 250 255 258 264 264 262 259 242 203 162 136 150 206 235 211 242 237 211 160 208 293 298 296 289 267 234 228 246 248 245 241 240 240 243 250 268 279 284 287 291 295 299 302 304 305 306 306 307 307 307 308 308 308 308 309 310 310 310 306 302 298 296
205 208 215 220 223 221 219 215 221 243 256 258 259 259 256 236 200 176 171 177 186 200 219 233 241 243 241 240 242 246 253 241 198 173 145 155 209 235 201 232 244 233 185 190 225 266 289 292 287 265 236 236 237 236 231 232 234 237 243 251 260 270 278 285 292 298 301 303 304 304 304 304 305 305 306 306 306 306 306 307 307 306 302 299 297 296
203 206 209 208 207 205 206 205 208 213 223 230 237 241 246 235 218 201 187 183 185 190 200 213 223 230 232 236 240 243 245 238 195 173 158 161 206 245 231 236 244 247 228 214 220 235 259 275 285 286 267 248 237 230 225 227 228 229 232 238 247 259 272 279 288 293 295 298 299 300 301 302 302 303 303 303 303 303 303 303 303 302 300 299 298 299
199 201 202 202 205 211 216 216 217 219 223 227 228 228 228 229 226 219 205 193 187 188 193 202 209 217 224 232 238 241 241 236 209 186 171 174 206 244 251 247 250 253 253 245 238 241 252 263 274 283 283 267 246 225 213 220 222 221 216 220 230 244 260 267 274 280 285 290 293 294 297 298 298 298 299 299 299 300 300 300 301 301 302 301 301 301
192 197 199 199 203 209 217 220 222 224 226 229 230 228 224 223 223 220 213 203 196 194 197 202 206 210 215 225 235 241 240 238 228 212 194 197 215 244 259 249 244 245 254 257 256 257 264 268 274 282 289 287 272 241 211 210 208 205 198 209 220 231 240 245 257 271 281 286 287 287 288 288 289 291 293 294 295 296 297 299 301 302 303 302 301 299
192 198 202 200 201 206 212 216 218 221 224 227 227 224 220 218 217 215 213 210 206 205 206 208 210 211 214 222 231 238 240 237 234 230 220 215 223 242 262 254 242 238 252 261 264 267 274 278 281 282 285 286 284 272 237 202 179 171 199 215 224 231 236 236 243 256 275 281 284 284 284 283 282 282 284 290 293 295 298 300 301 302 301 300 298 296
196 200 203 201 201 204 209 210 211 213 219 223 222 219 215 215 214 214 214 212 211 212 213 213 215 216 218 221 226 230 235 234 232 230 229 224 227 239 256 260 254 247 251 262 269 272 277 281 282 282 278 277 280 283 281 262 226 222 239 238 242 248 253 249 248 253 266 276 281 284 285 284 283 283 285 290 294 297 299 300 300 299 299 298 296 295
198 200 202 200 200 202 205 207 209 211 214 217 218 216 213 211 211 210 211 209 208 208 211 212 216 220 222 225 228 230 234 233 233 231 229 225 228 237 249 258 258 253 251 259 268 274 277 280 282 284 281 277 279 284 293 296 293 283 271 267 267 269 271 267 262 261 264 273 279 283 285 286 286 287 289 292 295 296 295 294 294 295 297 296 295 294
199 200 200 198 198 199 202 206 208 210 212 214 214 211 206 204 206 207 207 205 205 206 207 210 215 221 226 231 236 239 241 239 237 234 231 227 228 236 247 257 262 262 260 261 264 268 271 274 278 282 287 289 290 291 294 294 292 289 289 287 282 275 270 272 271 268 266 271 278 283 286 287 288 287 285 286 287 288 289 290 291 294 297 296 295 293
201 201 200 198 195 194 196 202 205 207 207 209 208 202 189 187 194 203 208 208 208 208 208 210 217 231 241 247 250 250 249 247 244 241 236 232 233 236 245 255 263 268 268 264 262 262 264 269 274 278 283 288 292 294 294 291 291 296 301 300 297 293 292 292 285 276 269 266 271 277 283 283 281 279 280 282 284 287 290 292 293 293 292 291 290 290
201 200 198 193 191 191 196 202 202 199 196 193 191 187 183 179 183 197 212 218 220 219 216 214 228 244 251 248 249 249 247 247 245 243 240 236 234 236 242 248 255 261 264 264 263 261 262 268 272 276 278 282 285 287 286 287 292 298 301 300 298 297 299 294 287 279 272 267 266 271 279 285 287 288 289 289 288 286 284 285 285 286 285 281 280 283
196 192 187 183 184 189 197 196 190 183 176 174 179 186 192 191 193 197 201 207 212 213 205 203 216 233 244 247 247 248 246 250 251 250 247 238 232 229 232 238 243 249 255 260 260 259 257 262 266 271 274 279 283 285 285 286 290 294 295 295 297 299 296 289 281 267 266 274 276 279 284 290 292 292 292 289 286 281 277 276 278 281 283 281 278 277
186 184 181 180 182 184 185 178 174 171 170 179 190 197 199 197 198 198 196 196 196 196 190 191 201 217 230 235 241 246 252 271 290 289 267 245 232 225 224 228 231 234 238 250 256 257 253 254 258 263 267 272 276 279 284 288 290 290 289 292 298 301 299 296 296 293 287 287 287 288 288 288 288 286 285 285 284 283 279 277 277 278 280 282 282 280
178 176 174 171 166 163 161 164 165 168 172 183 193 200 201 197 195 193 191 189 189 188 184 184 193 211 230 234 237 247 273 301 316 311 271 242 227 219 220 223 225 223 216 227 242 254 259 257 256 255 257 262 268 274 280 285 289 290 289 289 287 286 283 293 302 306 302 297 292 288 283 283 283 283 284 284 284 284 282 278 276 276 277 279 280 280
168 167 164 158 154 155 163 171 174 176 180 188 194 198 198 194 192 192 192 192 194 191 179 173 179 200 226 225 224 235 288 310 316 314 299 267 242 229 218 217 216 214 207 212 218 229 247 261 265 265 261 262 265 270 276 283 286 288 287 286 283 278 274 284 293 299 298 297 293 287 281 281 283 286 287 287 286 285 284 284 282 280 278 277 276 276
159 159 158 156 161 170 180 180 178 178 184 192 196 197 193 189 189 192 196 197 198 196 185 174 175 186 209 206 199 208 289 303 308 310 310 306 292 263 229 217 211 207 204 210 213 217 223 242 258 270 278 274 269 267 267 275 281 284 285 287 287 285 283 285 287 289 290 290 289 287 284 285 287 289 290 291 291 290 288 285 282 280 279 276 274 273
164 165 166 166 171 174 177 172 171 174 182 190 194 195 189 181 181 186 195 193 190 182 171 161 165 181 207 218 228 247 268 276 281 284 287 292 296 292 271 236 218 208 202 209 214 219 223 229 237 249 265 273 274 272 268 267 270 275 279 284 287 287 286 286 285 283 282 283 284 286 288 291 292 292 292 293 293 292 289 285 281 277 276 277 277 276
178 179 179 176 174 172 168 163 163 169 178 182 189 193 191 179 177 176 176 174 169 164 158 155 171 204 230 237 236 234 241 252 256 257 257 260 264 267 269 252 225 214 214 224 230 233 233 231 229 228 233 247 262 271 274 270 266 265 270 276 281 283 283 283 283 281 278 277 278 281 287 292 294 295 296 295 293 291 289 287 284 281 278 277 278 277
183 184 184 180 178 178 178 172 170 172 179 180 183 186 190 184 179 174 159 156 157 160 169 186 210 229 239 236 228 222 227 238 244 244 241 237 232 227 211 177 161 180 267 275 273 266 259 244 233 225 218 221 235 254 267 269 267 265 266 269 273 277 280 281 280 279 278 279 280 282 285 286 286 288 292 292 291 290 291 290 289 286 282 279 276 274
183 185 183 180 182 186 186 180 178 179 185 186 186 185 184 182 176 167 156 155 162 174 191 206 218 228 235 232 227 223 225 232 239 243 239 228 216 203 189 169 159 161 216 282 281 274 271 255 239 228 220 217 220 230 251 262 267 269 267 265 265 270 275 279 281 283 285 286 286 284 282 279 279 280 282 286 289 291 292 292 291 289 285 280 276 274
185 184 182 182 186 189 188 183 181 184 189 191 190 188 184 180 177 172 167 172 183 196 208 213 221 228 235 235 233 230 231 234 241 245 242 228 214 205 200 183 176 178 206 243 256 261 266 273 268 251 231 220 216 217 228 243 257 267 270 266 265 267 273 279 282 285 286 284 282 280 278 278 279 281 284 287 291 292 293 292 291 289 287 285 281 278